Regional Weather Roundup
Issued by NWS

Home | Current Version | Previous Version | Text Only | Print | Product List | Glossary Off
Versions: 1 2 3 4 5 6 7 8 9 10 11 12 13 14 15 16 17 18 19 20 21 22 23 24 25 26 27 28 29 30 31 32 33 34 35 36 37 38 39 40 41 42 43 44 45 46 47 48 49 50

000
ASUS45 KBOU 041207
RWRCO

WEATHER ROUNDUP FOR COLORADO
NATIONAL WEATHER SERVICE DENVER/BOULDER CO
600 AM MDT WED MAY 04 2016

NOTE: "FAIR" INDICATES FEW OR NO CLOUDS BELOW 12000 FEET WITH NO
SIGNIFICANT WEATHER AND/OR OBSTRUCTIONS TO VISIBILITY.

COZ001>005-013-030-031-041300-
...NORTHWEST COLORADO...

CITY           SKY/WX    TMP DP  RH WIND       PRES   REMARKS
CRAIG          FAIR      30  26  85 W3        30.30R
HAYDEN         FAIR      37  27  65 E13       30.30S
MEEKER         FAIR      35  27  72 NE3       30.30S
MOUNT WERNER   NOT AVBL
STEAMBOAT SPGS FAIR      33  27  79 CALM      30.33R
WALDEN         FAIR      27  21  80 SE8       30.38F WCI  18
$$

COZ006>008-011-041300-
...WEST CENTRAL VALLEYS...

CITY           SKY/WX    TMP DP  RH WIND       PRES   REMARKS
GRAND JUNCTION FAIR      48  31  51 E13       30.23R
MONTROSE       FAIR      41  29  62 SE7       30.29R
EAGLE          FAIR      34  27  75 CALM      30.39R
RIFLE          FAIR      37  30  75 E3        30.29R
DELTA          NOT AVBL
NUCLA          NOT AVBL
$$

COZ017>023-064>068-041300-
...SOUTHWEST COLORADO...

CITY           SKY/WX    TMP DP  RH WIND       PRES   REMARKS
DURANGO        FAIR      34  32  92 CALM      30.33R
CORTEZ         FAIR      32  27  81 E3        30.29R
PAGOSA SPRINGS FAIR      33  32  94 CALM      30.38R
TELLURIDE      FAIR      38  26  62 SE7       30.43R
WOLF CREEK PAS FAIR      30  19  64 SW8       30.55S WCI  23
$$

COZ009-010-012-014-032>034-037-058>063-041300-
...CENTRAL COLORADO...

CITY           SKY/WX    TMP DP  RH WIND       PRES   REMARKS
ASPEN          FAIR      34  23  64 S7        30.36R WCI  28
BUENA VISTA    FAIR      31  22  70 W3        30.40S
COPPER MTN     NOT AVBL
BERTHOUD PASS  FAIR      27  16  63 NW17      30.52S WCI  14
COTTONWOOD PAS FAIR      41  10  28 CALM      30.44S
GUNNISON       FAIR      28  21  74 N3        30.43R
KREMMLING      FAIR      28  23  80 CALM      30.41S
LEADVILLE      FAIR      24  15  68 NE6       30.44S WCI  17
MONARCH PASS   FAIR      30  12  47 W18       30.62R WCI  18
SALIDA         FAIR      36  24  63 CALM      30.47R
SUNLIGHT       FAIR      39  19  45 CALM      30.47R
WILKERSON PASS FAIR      32  18  55 W6        30.51R WCI  26
$$

COZ069>075-041300-
...SAN LUIS VALLEY/SANGRE DE CRISTO MOUNTAINS...

CITY           SKY/WX    TMP DP  RH WIND       PRES   REMARKS
ALAMOSA        FAIR      31  25  78 E3        30.38S
LA VETA PASS   FAIR      34  18  51 S12G18    30.44S WCI  25
SAGUACHE       FAIR      32  23  69 N13       30.40S WCI  22
$$

COZ035-036-038>040-041300-
...NORTHERN COLORADO FRONT RANGE...

CITY           SKY/WX    TMP DP  RH WIND       PRES   REMARKS
DENVER INTL AP FAIR      45  27  49 SW13      30.24S
DMNS CITY PARK   N/A     45  28  52 E5G10     30.25S
AURORA         FAIR      41  29  62 S9        30.26S
FRONT RANGE AP NOT AVBL
ERIE MUNI ARPT FAIR      37  34  90 S3        30.24S
BOULDER MUN AP FAIR      45  32  61 CALM      30.23S
CENTENNIAL     FAIR      43  28  55 S6        30.27R
BROOMFIELD     FAIR      45  32  61 CALM      30.25S
FORT COLLINS   FAIR      43  32  65 N3        30.25R
LONGMONT       FAIR      39  32  77 CALM      30.25S HAZE
$$

COZ041-046-047-076>085-087-088-041300-
...PIKES PEAK/PALMER DIVIDE AND SOUTHERN FOOTHILLS...

CITY           SKY/WX    TMP DP  RH WIND       PRES   REMARKS
COLO. SPRINGS  FAIR      41  27  57 N7        30.30S
A. F. ACADEMY  FAIR      32  25  74 N9        30.30R WCI  24
SCHRIEVER AFB  NOT AVBL
ELLICOTT       FAIR     N/A N/A N/A CALM      30.28S
FALCON         NOT AVBL
FORT CARSON    FAIR      39  28  63 NW9       30.27S
LIMON          FAIR      39  32  76 N7        30.26R
MONUMENT HILL  FAIR      37  25  60 SW8       30.33R
TRINIDAD       FAIR      41  28  60 SW16      30.30R
$$

COZ042>045-048>051-090-091-041300-
...NORTHEAST COLORADO...

CITY           SKY/WX    TMP DP  RH WIND       PRES   REMARKS
GREELEY ARPT   FAIR      36  34  93 CALM      30.24R
AKRON          FAIR      42  35  76 W14       30.20R
BURLINGTON     FAIR      42  34  73 W12       30.20R
WRAY           NOT AVBL
STERLING       FAIR      34  34 100 S5        30.19R WCI  30
HOLYOKE        NOT AVBL
FORT MORGAN    FAIR      40  36  86 W13       30.22R
$$

COZ086-089-092>099-041300-
...SOUTHEAST COLORADO...

CITY           SKY/WX    TMP DP  RH WIND       PRES   REMARKS
PUEBLO         FAIR      41  32  70 W9        30.26R
LA JUNTA       FAIR      43  35  73 W12       30.23R
LAMAR          FAIR      42  38  85 SW7       30.19R
SPRINGFIELD      N/A     43  35  73 W16       30.21R
$$



USA.gov is the U.S. government's official web portal to all federal, state and local government web resources and services.